Regional Weather Roundup
Issued by NWS Sioux Falls, SD

Home | Current Version | Previous Version | Text Only | Print | Product List | Glossary Off
Versions: 1 2 3 4 5 6 7 8 9 10 11 12 13 14 15 16 17 18 19 20 21 22 23 24 25 26 27 28 29 30 31 32 33 34 35 36 37 38 39 40 41 42 43 44 45 46 47 48 49 50

000
ASUS43 KFSD 100702
RWRFSD

WEATHER ROUNDUP FOR SE SOUTH DAKOTA/SW MINNESOTA/NW IOWA
NATIONAL WEATHER SERVICE SIOUX FALLS SD
100 AM CST SAT DEC 10 2016

NOTE: "FAIR" INDICATES FEW OR NO CLOUDS BELOW 12,000 FEET WITH NO
SIGNIFICANT WEATHER AND OR OBSTRUCTIONS TO VISIBILITY.


SDZ038>040-050-052>070-100800-
SOUTHEAST SOUTH DAKOTA

CITY           SKY/WX    TMP DP  RH WIND       PRES   REMARKS
CHAMBERLAIN    CLOUDY     4   1  84 NE5       30.46F WCI  -5
HURON          CLOUDY     3   0  87 N8        30.49F WCI -10
MADISON        CLOUDY     5   1  85 NE7       30.45F WCI  -7
MITCHELL       CLOUDY     5   1  83 N6        30.50F WCI  -6
SIOUX FALLS    CLOUDY    11   7  84 NE7       30.47F WCI   0
WINNER         CLOUDY     5   1  83 N5        30.42F WCI  -4
YANKTON        CLOUDY    10   7  85 NW6       30.47F WCI   1
$$

MNZ071-072-080-081-089-090-097-098-100800-
SOUTHWEST MINNESOTA

CITY           SKY/WX    TMP DP  RH WIND       PRES   REMARKS
FAIRMONT       FLURRIES   8   4  83 N9        30.50F WCI  -5
JACKSON        CLOUDY     9   3  78 N5        30.47F WCI   0
LUVERNE        CLOUDY    10   5  79 NE6       30.48S WCI   1
MARSHALL       CLOUDY     5   0  79 N7        30.53S WCI  -7
MONTEVIDEO     CLEAR      0  -6  78 CALM      30.55S
PIPESTONE      CLOUDY     7   1  78 NE5       30.44F WCI  -2
REDWOOD FALLS  CLOUDY     5  -2  72 NW8       30.53S WCI  -8
TRACY          CLOUDY     7   3  83 N6        30.50S WCI  -3
WINDOM         CLOUDY     7   1  78 MISG      30.48S
WORTHINGTON    FLURRIES   7   3  84 N6        30.47S WCI  -3
$$

IAZ001>003-012>014-020>022-031-032-NEZ013-014-SDZ071-100800-
NORTHWEST IOWA

CITY           SKY/WX    TMP DP  RH WIND       PRES   REMARKS
CHEROKEE       FLURRIES  17  13  85 CALM      30.48S
DENISON        CLOUDY    19  14  79 CALM      30.45F
ESTHERVILLE    CLOUDY     9   7  92 N8        30.47F WCI  -3
LE MARS        CLOUDY    16  12  86 CALM      30.49F
ORANGE CITY    LGT SNOW  16  14  93 CALM      30.46F
SHELDON        FLURRIES  14  12  92 N6        30.46S WCI   5
SIOUX CITY     FLURRIES  20  11  68 CALM      30.49F
SPENCER        FLURRIES  15  12  88 W9        30.47F WCI   3
STORM LAKE     CLOUDY    16  10  79 CALM      30.45F
$$

ABBREVIATIONS USED IN REMARKS
   TC - TEMPERATURE IN CELSIUS
  WCI - WIND CHILL INDEX
   HX - HEAT INDEX
  VSB - VISIBILITY




USA.gov is the U.S. government's official web portal to all federal, state and local government web resources and services.